#timestamp,LO_Frequency,Hit,StdDev 
1539846015.6,286046996.6,N
1539846035.4,286046993.4,N
1539846055.3,286046994.6,N
1539846075.1,286046992.2,N
1539846095.9,286046992.5,N
1539846115.7,286046995.6,N
1539846135.5,286046996.7,N
1539846155.4,286047000.2,N
1539846175.2,286047003.9,N
1539846195.0,286047006.3,N
1539846196.0,286047006.3,N
1539846215.8,286047010.4,N
1539846235.6,286047011.2,N
1539846255.5,286047014.4,N
1539846275.3,286047016.4,N
1539846295.1,286047020.1,N
1539846315.9,286047019.1,N
1539846335.7,286047021.9,N
1539846355.6,286047016.3,N
1539846375.4,286047015.0,N
1539846395.2,286047015.4,N
1539846415.1,286047017.1,N
1539846416.0,286047017.1,N
1539846435.8,286047020.2,N
1539846455.6,286047017.7,N
1539846475.5,286047014.7,N
1539846525.4,286047014.7,E
1539846535.3,286047004.5,N
1539846555.1,286046997.9,P
1539846575.9,286046995.9,N
1539846595.7,286046991.9,N
1539846615.5,286046994.6,N
1539846635.4,286046994.5,N
1539846655.2,286046997.6,N
1539846675.0,286046997.5,N
1539846675.9,286046997.5,N
1539846695.8,286046998.3,N
1539846715.6,286047002.6,N
1539846735.4,286047004.0,N
1539846755.3,286047006.0,N
1539846775.1,286047004.5,N
1539846795.9,286047006.0,N
1539846815.7,286047002.0,N
1539846835.5,286047004.4,N
1539846855.4,286047003.9,N
1539846875.2,286047001.8,N
1539846895.1,286047005.2,N
1539846896.0,286047005.2,N
1539846915.8,286047009.2,N
1539846935.6,286047006.4,N
1539846955.5,286047008.5,N
1539846975.3,286047010.4,N
1539846995.1,286047009.4,N
1539847015.9,286047008.4,N
1539847035.7,286047003.6,N
1539847055.6,286047002.2,N
1539847075.4,286047000.9,N
1539847095.2,286046998.7,N
1539847115.1,286047000.0,N
1539847116.0,286047000.0,N
1539847135.8,286047002.3,N
1539847155.6,286047002.8,N
1539847175.5,286047002.8,N
1539847195.3,286047002.4,N
1539847215.2,286046999.2,N
1539847235.9,286047000.4,N
1539847255.7,286047002.6,N
1539847275.6,286047004.8,N
1539847295.4,286047005.0,N
1539847315.2,286047006.5,N
1539847335.1,286047008.9,N
1539847336.0,286047008.9,N
1539847355.8,286047009.6,N
1539847375.7,286047012.2,Y
1539847395.5,286047005.0,P
1539847415.3,286047003.4,P
1539847435.2,286047001.0,N
1539847455.0,286046997.9,N
1539847455.9,286046997.9,N
1539847475.7,286046996.9,N
1539847495.6,286047000.1,N
1539847515.4,286047000.1,N
1539847535.3,286047000.1,N
1539847555.1,286046997.4,N
1539847556.0,286046997.4,N
1539847575.8,286046997.7,N
1539847595.7,286046998.0,N
1539847615.5,286046996.1,N
1539847635.3,286046991.7,Y
1539847655.2,286046990.8,P
1539847675.0,286046991.0,N
1539847675.9,286046991.0,N
1539847695.8,286046992.8,N
1539847715.6,286046994.1,N
1539847735.4,286046997.3,N
1539847755.3,286046995.9,N
1539847775.1,286046990.5,Y
1539847795.9,286046995.1,P
1539847815.7,286046994.8,P
1539847835.5,286046994.0,P
1539847855.4,286046994.2,Y
1539847875.2,286047000.9,P
1539847895.0,286046996.6,N
1539847895.9,286046996.6,N
1539847915.8,286046995.0,N
1539847935.6,286046999.1,N
1539847955.5,286047001.7,N
1539847975.3,286047001.0,N
1539847995.1,286047005.8,N
1539848015.9,286047004.6,N
1539848035.7,286047008.0,N
1539848055.5,286047009.5,N
1539848075.4,286047009.5,N
1539848095.2,286047010.9,N
1539848115.1,286047012.9,N
1539848116.0,286047012.9,N
1539848135.8,286047014.3,N
1539848155.6,286047016.6,N
1539848175.5,286047014.2,N
1539848195.3,286047012.5,N
1539848215.1,286047013.3,N
1539848235.9,286047013.2,N
1539848255.7,286047013.2,N
1539848275.6,286047015.1,N
1539848295.4,286047015.4,N
1539848315.2,286047015.5,N
1539848335.1,286047015.4,N
1539848336.0,286047015.4,N
1539848355.8,286047014.9,N
1539848375.6,286047015.5,N
1539848395.5,286047014.2,N
1539848415.3,286047016.8,N
1539848435.2,286047016.9,N
1539848455.9,286047016.2,N
1539848475.7,286047018.7,Y
1539848495.6,286047003.6,P
1539848515.4,286047004.8,N
1539848535.2,286047006.2,N
1539848555.1,286047005.0,N
1539848556.0,286047005.0,N
1539848575.8,286047007.4,N
1539848595.7,286047006.4,N
1539848615.5,286047003.5,N
1539848635.3,286047003.6,N
1539848655.2,286047001.7,N
1539848675.0,286047003.3,N
1539848675.9,286047003.3,N
1539848695.7,286047004.6,N
1539848715.6,286047007.4,Y
1539848735.4,286047002.5,P
1539848755.3,286047002.4,N
1539848775.1,286047001.2,N
1539848795.8,286046999.7,N
1539848815.7,286047001.3,N
1539848835.5,286047003.7,N
1539848855.3,286047002.8,N
1539848875.2,286047000.8,N
1539848895.0,286046997.2,N
1539848895.9,286046997.2,N
1539848915.8,286046997.8,N
1539848935.6,286046995.6,N
1539848955.4,286046992.9,N
1539848975.3,286046992.6,N
1539848995.1,286046991.7,N
1539849015.9,286046995.9,N
1539849035.7,286046992.9,N
1539849055.5,286046990.6,N
1539849075.4,286046991.6,N
1539849095.2,286046993.0,N
1539849115.0,286046990.6,N
1539849115.9,286046990.6,N
1539849135.8,286046991.4,N
1539849155.6,286046988.6,N
1539849175.4,286046990.8,N
1539849195.3,286046989.8,N
1539849215.1,286046992.8,N
1539849235.9,286046992.9,N
1539849255.7,286046992.9,N
1539849275.5,286046992.6,N
1539849295.4,286046988.9,N
1539849315.2,286046986.7,N
1539849335.0,286046984.9,Y
1539849336.0,286046984.9,P
1539849355.8,286046991.4,N
1539849375.6,286046994.6,N
1539849395.5,286046996.3,N
1539849415.3,286046991.8,N
1539849435.1,286046991.7,N
1539849455.9,286046993.0,N
1539849475.7,286046991.2,N
1539849495.6,286046989.7,Y
1539849515.4,286046997.8,P
1539849535.2,286046998.0,N
1539849555.1,286046996.8,N
1539849556.0,286046996.8,N
1539849575.8,286047000.9,N
1539849595.6,286047001.1,N
